Starlink 33813

operational
NORAD ID: 63585 Int'l Des: 2025-076 Owner: SPXS Country: US Constellation: starlink
LEOCIRCULAR

About Starlink 33813

Description loading...

Live Position

Loading 3D Globe...

Upcoming Passes

Altitude History

Altitude vs Time

uPlot chart will show altitude changes over time

Two-Line Element Set

1 63585U 25076S 25350.24532306 .00018256 00000-0 67136-3 0 9995
2 63585 42.9998 72.5128 0000493 247.5324 112.5475 15.27577262 39076
Epoch: Dec 16, 2025 • Age: 22 hours

Current Status

Altitude 486.4 km
Velocity 7.63 km/s
Sub-Earth Point 42.88°N, 0.08°W
Launch Date Apr 14, 2025
Age 0.6 years
Type internet

Technical Details

Classification Payload
Mass 575.00 kg
Dry Mass 530.00 kg
Total Mass 575.00 kg
Length 0.30 m
Diameter 4.10 m
Span 29.00 m
Shape Box + pan
Manufacturer SPXS
Bus Type Starlink V2MO
Phase Status In Orbit
Owner/State SPXS/US

Large Constellations

Loading constellations...